| time (UTC) | temp F | wind direction | speed knots | gust knots | rain 1hr in | rain 24hr in | rain mn in | humidity % | barometer mb |
| 20260504081543 | 50 | 135 | 6.1 | 16.5 | 0.00 | 0.00 | 0.00 | 34 | 1014.5 |
| 20260504060120 | 53 | 360 | 3.5 | 9.6 | 0.00 | 0.00 | 0.00 | 25 | 1011.2 |
| 20260504050106 | 56 | 351 | 7.0 | 14.8 | 0.00 | 0.00 | 0.00 | 25 | 1010.0 |
| 20260504044550 | 57 | 313 | 4.3 | 8.7 | 0.00 | 0.00 | 0.00 | 23 | 1009.3 |
| 20260504043047 | 58 | 25 | 2.6 | 6.1 | 0.00 | 0.00 | 0.00 | 23 | 1008.8 |
| 20260504041542 | 59 | 10 | 3.5 | 7.8 | 0.00 | 0.00 | 0.00 | 23 | 1008.5 |
| 20260504040040 | 59 | 2 | 7.0 | 11.3 | 0.00 | 0.00 | 0.00 | 22 | 1008.1 |
| 20260504034539 | 60 | 32 | 7.8 | 11.3 | 0.00 | 0.00 | 0.00 | 22 | 1007.8 |
| 20260504033039 | 61 | 41 | 8.7 | 13.9 | 0.00 | 0.00 | 0.00 | 21 | 1007.3 |
| 20260504031537 | 63 | 42 | 8.7 | 14.8 | 0.00 | 0.00 | 0.00 | 18 | 1006.8 |
| 20260504030134 | 62 | 33 | 6.1 | 10.4 | 0.00 | 0.00 | 0.00 | 14 | 1006.3 |
| 20260504024530 | 64 | 22 | 0.0 | 2.6 | 0.00 | 0.00 | 0.00 | 13 | 1006.0 |
| 20260504023024 | 67 | 21 | 0.9 | 2.6 | 0.00 | 0.00 | 0.00 | 10 | 1005.9 |
| 20260504021518 | 69 | 34 | 3.5 | 6.1 | 0.00 | 0.00 | 0.00 | 9 | 1005.7 |
| 20260504020014 | 71 | 290 | 4.3 | 8.7 | 0.00 | 0.00 | 0.00 | 8 | 1005.7 |
| 20260504014508 | 72 | 6 | 4.3 | 7.8 | 0.00 | 0.00 | 0.00 | 7 | 1005.7 |
| 20260504013113 | 73 | 338 | 4.3 | 7.8 | 0.00 | 0.00 | 0.00 | 7 | 1005.6 |
| 20260504011555 | 74 | 321 | 6.1 | 11.3 | 0.00 | 0.00 | 0.00 | 6 | 1005.7 |
| 20260504010109 | 75 | 281 | 7.8 | 12.2 | 0.00 | 0.00 | 0.00 | 6 | 1005.8 |
| 20260504004543 | 75 | 281 | 7.0 | 11.3 | 0.00 | 0.00 | 0.00 | 6 | 1006.0 |
| 20260504003040 | 75 | 252 | 6.1 | 14.8 | 0.00 | 0.00 | 0.00 | 5 | 1006.2 |
| 20260504001533 | 75 | 277 | 6.1 | 9.6 | 0.00 | 0.00 | 0.00 | 5 | 1006.4 |
| 20260504000038 | 76 | 283 | 8.7 | 18.2 | 0.00 | 0.00 | 0.00 | 5 | 1006.5 |
| 20260503234519 | 76 | 257 | 4.3 | 9.6 | 0.00 | 0.00 | 0.00 | 4 | 1006.5 |
| 20260503233019 | 75 | 244 | 8.7 | 14.8 | 0.00 | 0.00 | 0.00 | 5 | 1006.7 |
| 20260503231508 | 76 | 261 | 7.0 | 11.3 | 0.00 | 0.00 | 0.00 | 4 | 1006.9 |
| 20260503230005 | 76 | 243 | 4.3 | 12.2 | 0.00 | 0.00 | 0.00 | 4 | 1006.9 |
| 20260503224601 | 75 | 242 | 4.3 | 10.4 | 0.00 | 0.00 | 0.00 | 4 | 1007.1 |
| 20260503223056 | 75 | 269 | 0.9 | 9.6 | 0.00 | 0.00 | 0.00 | 4 | 1007.2 |
| 20260503221556 | 75 | 275 | 6.1 | 11.3 | 0.00 | 0.00 | 0.00 | 4 | 1007.5 |
| 20260503220047 | 74 | 330 | 7.0 | 13.9 | 0.00 | 0.00 | 0.00 | 4 | 1007.7 |
| 20260503214536 | 74 | 280 | 7.8 | 16.5 | 0.00 | 0.00 | 0.00 | 4 | 1007.8 |
| 20260503213033 | 73 | 282 | 2.6 | 11.3 | 0.00 | 0.00 | 0.00 | 4 | 1008.2 |
| 20260503211524 | 73 | 272 | 3.5 | 13.9 | 0.00 | 0.00 | 0.00 | 4 | 1008.6 |
| 20260503210038 | 73 | 227 | 7.8 | 13.9 | 0.00 | 0.00 | 0.00 | 5 | 1008.9 |
| 20260503204512 | 72 | 271 | 7.0 | 15.6 | 0.00 | 0.00 | 0.00 | 4 | 1009.0 |
| 20260503203008 | 72 | 68 | 5.2 | 16.5 | 0.00 | 0.00 | 0.00 | 4 | 1009.3 |
| 20260503201600 | 72 | 164 | 8.7 | 19.1 | 0.00 | 0.00 | 0.00 | 4 | 1009.8 |
| 20260503200054 | 71 | 250 | 5.2 | 10.4 | 0.00 | 0.00 | 0.00 | 5 | 1009.9 |
| 20260503194605 | 71 | 195 | 8.7 | 15.6 | 0.00 | 0.00 | 0.00 | 5 | 1010.1 |
| 20260503193044 | 70 | 297 | 7.0 | 13.0 | 0.00 | 0.00 | 0.00 | 7 | 1010.4 |
| 20260503191542 | 70 | 297 | 5.2 | 11.3 | 0.00 | 0.00 | 0.00 | 7 | 1010.8 |
| 20260503190043 | 69 | 45 | 9.6 | 28.7 | 0.00 | 0.00 | 0.00 | 8 | 1010.8 |
| 20260503184531 | 68 | 262 | 3.5 | 13.9 | 0.00 | 0.00 | 0.00 | 8 | 1011.1 |
| 20260503183126 | 68 | 31 | 6.1 | 12.2 | 0.00 | 0.00 | 0.00 | 9 | 1011.3 |
| 20260503181523 | 68 | 278 | 6.1 | 17.4 | 0.00 | 0.00 | 0.00 | 10 | 1011.6 |
| 20260503180018 | 68 | 276 | 5.2 | 15.6 | 0.00 | 0.00 | 0.00 | 10 | 1011.8 |
| 20260503174513 | 67 | 163 | 5.2 | 10.4 | 0.00 | 0.00 | 0.00 | 10 | 1011.8 |
| 20260503173010 | 66 | 275 | 4.3 | 12.2 | 0.00 | 0.00 | 0.00 | 12 | 1011.9 |
| 20260503171507 | 66 | 272 | 4.3 | 12.2 | 0.00 | 0.00 | 0.00 | 12 | 1012.0 |
| 20260503130107 | 39 | 31 | 0.0 | 0.0 | 0.00 | 0.00 | 0.00 | 61 | 1013.5 |